Tracking 35275 objects as of 9-Sep-2026
HD Live streaming from Space Station
objects crossing your sky now

COSMOS 2024 (ETALON 2)

Track COSMOS 2024 (ETALON 2) now!
COSMOS 2024 (ETALON 2) is classified as:


NORAD ID: 20026
Int'l Code: 1989-039C
Launch date: May 31, 1989
Source: Commonwealth of Independent States (former USSR) (CIS)
Launch site: TYURATAM MISSILE AND SPACE COMPLEX (TTMTR)
Your satellite tracking list
Your tracking list is empty




NASA's NSSDC Master Catalog

Two Line Element Set (TLE):
1 20026U 89039C   26249.86466818 -.00000019  00000-0  00000-0 0  9990
2 20026  64.8804 307.7184 0020880 212.1764 320.5302  2.13204536290241
Source of the keplerian elements: AFSPC